Location: Miles
(41.4492°N, 81.6087°W)
Time: 22:54:01
(UTC+00:00)

Vanguard 2 Rocket - Pass Details

Date: 27 September 2024
Orbit: 553 x 3298 km, 32.9° (Epoch: 12 October)

Event Time Altitude Azimuth Distance (km) Brightness Sun altitude
Rises 09:36:30 0° 269° (W) 4,693 - -19.9°
Reaches altitude 10° 09:39:55 10° 256° (WSW) 4,090 - -19.3°
Exits shadow 09:44:05 21° 235° (SW) 3,711 9.4 -18.6°
Maximum altitude 09:48:44 26° 206° (SSW) 3,829 9.7 -17.7°
Drops below altitude 10° 10:01:08 10° 160° (SSE) 5,837 11.1 -15.5°
Sets 10:07:29 0° 149° (SSE) 7,123 11.7 -14.3°
